Tracking 30918 objects as of 2-Jul-2025
HD Live streaming from Space Station
objects crossing your sky now

STARLINK-3991

Track STARLINK-3991 now!
10-day predictions
STARLINK-3991 is classified as:


NORAD ID: 52641
Int'l Code: 2022-052AV
Perigee: 546.4 km
Apogee: 547.3 km
Inclination: 53.2 °
Period: 95.4 minutes
Semi major axis: 6917 km
RCS: Unknown
Launch date: May 14, 2022
Source: United States (US)
Launch site: AIR FORCE EASTERN TEST RANGE (AFETR)
Your satellite tracking list
Your tracking list is empty




NASA's NSSDC Master Catalog

Two Line Element Set (TLE):
1 52641U 22052AV  25182.76331332 -.00001025  00000-0 -46369-4 0  9997
2 52641  53.2183 305.7746 0000625  77.8215 282.2848 15.08840235173255
Source of the keplerian elements: AFSPC